This is the latest recevied weather packets stored in our database for station/object WA0GMH-1. If no packets are shown the sender has not sent any weather packets the latest 10 day(s).
| Time | Temp. | Humidity | Pressure | Rain* | Wind** | Luminosity | Snow |
|---|---|---|---|---|---|---|---|
| 1777850723 | 27.22° C | 63% | 1008.9 hPa | 0 mm | - | - | - |
| 1777850321 | 27.22° C | 63% | 1008.7 hPa | 0 mm | - | - | - |
| 1777849919 | 27.22° C | 63% | 1008.7 hPa | 0 mm | - | - | - |
| 1777849517 | 26.67° C | 63% | 1008.7 hPa | 0 mm | - | - | - |
| 1777849114 | 26.67° C | 62% | 1008.8 hPa | 0 mm | - | - | - |
| 1777848712 | 26.67° C | 65% | 1008.8 hPa | 0 mm | - | - | - |
| 1777848310 | 26.67° C | 64% | 1008.9 hPa | 0 mm | - | - | - |
| 1777847908 | 26.67° C | 62% | 1008.8 hPa | 0 mm | - | - | - |
| 1777847505 | 26.67° C | 62% | 1009 hPa | 0 mm | - | - | - |
| 1777847103 | 26.67° C | 62% | 1008.9 hPa | 0 mm | - | - | - |
| 1777846701 | 26.67° C | 63% | 1009.1 hPa | 0 mm | - | - | - |
| 1777846299 | 26.67° C | 64% | 1009.1 hPa | 0 mm | - | - | - |
| 1777845896 | 26.67° C | 63% | 1009.4 hPa | 0 mm | - | - | - |
| 1777845494 | 26.11° C | 66% | 1009.3 hPa | 0 mm | - | - | - |
| 1777845092 | 26.11° C | 67% | 1009.2 hPa | 0 mm | - | - | - |
| 1777844690 | 26.11° C | 67% | 1009.4 hPa | 0 mm | - | - | - |
| 1777844287 | 25.56° C | 67% | 1009.5 hPa | 0 mm | - | - | - |
| 1777843886 | 26.11° C | 66% | 1009.8 hPa | 0 mm | - | - | - |
| 1777843483 | 26.11° C | 66% | 1009.7 hPa | 0 mm | - | - | - |
| 1777843081 | 26.11° C | 66% | 1009.8 hPa | 0 mm | - | - | - |
| 1777842276 | 25° C | 67% | 1009.9 hPa | 0 mm | - | - | - |
| 1777841874 | 25° C | 68% | 1010.2 hPa | 0 mm | - | - | - |
| 1777841472 | 25° C | 66% | 1010.4 hPa | 0 mm | - | - | - |
| 1777841069 | 25° C | 68% | 1010.5 hPa | 0 mm | - | - | - |
| 1777840668 | 25° C | 68% | 1010.6 hPa | 0 mm | - | - | - |
* Rain since midnight (hover to see other rain measurements)
** Current wind speed in m/s (hover to see current wind gust speed)